sat.trackr.live / text

‹ back to catalog

STARLINK-37618

NORAD 69228 · 2026-115T

PAYLOAD ACTIVE UNKNOWN

§ Identity

Operator
Country
US
Launch date
2026-05-26
Launch site
AFWTR
Launch vehicle
Mass (kg)
RCS (m²)

Purposes: comms

External: N2YO · Heavens-Above · Gunter

§ Orbital elements

Epoch: 2026-09-19T23:31:51.332736Z

Period
93.91 min
Inclination
97.2840°
Eccentricity
0.0000387
Mean motion
15.33454142 rev/d
Perigee alt
465.3 km
Apogee alt
465.8 km
Semi-major
6,843.7 km
B*
5.2905e-4
RAAN
279.1253°
Arg perigee
109.0268°
Mean anomaly
251.1017°
Rev number
1,921

§ Raw data

STARLINK-376181 69228U 26115T   26262.98045524  .00017048  00000+0  52905-3 0  99902 69228  97.2840 279.1253 0000387 109.0268 251.1017 15.33454142 19214

JSON: /api/v1/satellites/69228 · /tle

For live sub-satellite position, see the globe view (requires WebGL).

§ Visibility from observer

Set your observer location to see the next 7 days of passes ≥ 10°. The values pass through the URL so the page stays shareable.

No JS? Fill the form by hand. The geolocation button needs JavaScript.